Location: Unspecified
(20.0000°S, 0.0000°E)
Time: 05:41:43
(UTC+00:00)

NUDT-PHONESAT - Pass Details

Date: 27 July 2019
Orbit: 489 x 505 km, 97.4° (Epoch: 21 August)

Event Time Altitude Azimuth Distance (km) Brightness Sun altitude
Rises 05:32:36 0° 26° (NNE) 2,581 ? -14.1°
Reaches altitude 10° 05:34:45 10° 34° (NNE) 1,707 ? -13.6°
Maximum altitude 05:38:12 39° 103° (ESE) 768 ? -12.8°
Drops below altitude 10° 05:41:42 10° 173° (S) 1,733 ? -12.1°
Sets 05:43:54 0° 180° (S) 2,626 ? -11.6°
